Location: Newark
(13.6797°N, 8.5297°E)
Time: 14:27:53
(UTC+00:00)

SR - Pass Details

Date: 29 January 2020
Orbit: 576 x 880 km, 66.7° (Epoch: 28 February)

Event Time Altitude Azimuth Distance (km) Brightness Sun altitude
Rises 06:19:35 0° 348° (NNW) 3,197 ? 5.2°
Reaches altitude 10° 06:22:09 10° 354° (N) 2,220 ? 5.7°
Maximum altitude 06:26:57 45° 67° (ENE) 926 ? 6.8°
Drops below altitude 10° 06:31:22 10° 140° (SE) 2,035 ? 7.8°
Sets 06:33:37 0° 146° (SSE) 2,901 ? 8.4°
